PROMETHEUS 2-1

Last updated on Sun Nov 02 2025 00:03:57 GMT+0000 (Coordinated Universal Time)

1 41854U 16067G 25305.37015025 .00239298 00000+0 15333-2 0 9999 2 41854 98.0456 177.6268 0006944 86.8004 273.4053 15.75569407492943
UTC large
Height (km)
Speed (km/s)
/
Latitude / Longitude
Inclination (degrees)
Orbital Period (minutes)
Azimuth
Elevation
Range (km)
Doppler Factor

Next 0 passes for location: London (51.5072 / 0.1276)

Sorry there are no passes over London.